Simultaneous Nadir Overpasses (SNOs) Predictions

Prediction of SNOs between METOP-B and TERRA Satellite Orbit:

Table of predicted SNOs for the next 14.0 days since TLE Epoch: 1/5/2025
Index Date (METOP-B) Time (METOP-B) Lat,Lon (METOP-B) SZA (METOP-B ) Date (TERRA) Time (TERRA) Lat,Lon (TERRA) SZA (TERRA ) Distance(km) Time Diff (sec)
1 01/07/2025 05:56:02 79.03, 100.47 101.40 01/07/2025 05:57:06 79.04, 100.58 101.42 2.55 64
2 01/07/2025 06:46:32 -79.44, -89.25 78.12 01/07/2025 06:46:17 -79.43, -89.38 78.13 2.88 15
3 01/09/2025 19:35:52 -79.07, 75.76 78.92 01/09/2025 19:36:58 -79.07, 75.72 78.92 1.00 66
4 01/09/2025 20:26:26 79.30,-115.31 101.35 01/09/2025 20:26:11 79.31,-115.17 101.36 3.14 15
5 01/12/2025 09:15:40 79.08, 50.86 100.69 01/12/2025 09:16:46 79.08, 50.79 100.69 1.40 66
6 01/12/2025 10:06:15 -79.32,-140.11 79.04 01/12/2025 10:06:01 -79.32,-140.08 79.04 0.60 14
7 01/14/2025 22:55:30 -79.10, 25.97 79.75 01/14/2025 22:56:36 -79.09, 25.84 79.76 2.89 66
8 01/14/2025 23:46:03 79.35,-164.88 100.54 01/14/2025 23:45:48 79.36,-164.88 100.54 0.28 15
9 01/17/2025 12:35:23 78.93, -0.16 99.56 01/17/2025 12:36:26 78.93, -0.02 99.57 3.06 63



Historial Predications of SNOs between METOP-B and TERRA
